N6CTG Weather Reports


Display with metric or nautical units.
time (UTC)temp
F
wind
direction
speed
MPH
gust
MPH
rain 1hr
in
rain 24hr
in
rain mn
in
humidity
%
barometer
mb
20260504223602 64 236 7.0 12.0 0.00 0.00 0.00 57 1013.5
20260504222702 64 245 5.0 12.0 0.00 0.00 0.00 55 1013.7
20260504221802 64 236 7.0 14.0 0.00 0.00 0.00 57 1013.9
20260504220903 64 235 7.0 14.0 0.00 0.00 0.00 54 1014.0
20260504220002 65 242 6.0 11.0 0.00 0.00 0.00 54 1013.8
20260504215402 64 239 5.0 12.0 0.00 0.00 0.00 56 1014.0
20260504214524 64 246 5.0 12.0 0.00 0.00 0.00 55 1014.1
20260504213603 64 240 6.0 12.0 0.00 0.00 0.00 56 1014.1
20260504212703 65 240 5.0 11.0 0.00 0.00 0.00 54 1014.3
20260504211803 65 245 6.0 12.0 0.00 0.00 0.00 55 1014.4
20260504210902 65 245 5.0 14.0 0.00 0.00 0.00 53 1014.4
20260504210023 65 246 5.0 13.0 0.00 0.00 0.00 56 1014.5
20260504205402 64 243 6.0 14.0 0.00 0.00 0.00 56 1014.4
20260504204523 64 239 6.0 12.0 0.00 0.00 0.00 56 1014.4
20260504203602 64 253 4.0 10.0 0.00 0.00 0.00 56 1014.3
20260504202702 64 251 4.0 10.0 0.00 0.00 0.00 55 1014.4
20260504201802 64 256 3.0 9.0 0.00 0.00 0.00 59 1014.4
20260504200902 64 235 5.0 10.0 0.00 0.00 0.00 57 1014.4
20260504200004 63 240 4.0 10.0 0.00 0.00 0.00 58 1014.5
20260504195402 63 241 5.0 12.0 0.00 0.00 0.00 57 1014.5
20260504194523 63 251 3.0 9.0 0.00 0.00 0.00 60 1014.6
20260504193624 62 262 4.0 10.0 0.00 0.00 0.00 59 1014.6
20260504192702 63 246 4.0 9.0 0.00 0.00 0.00 59 1014.8
20260504191802 63 249 3.0 7.0 0.00 0.00 0.00 59 1014.9
20260504190902 62 241 5.0 10.0 0.00 0.00 0.00 61 1014.7
20260504190002 62 237 6.0 11.0 0.00 0.00 0.00 62 1014.9
20260504185402 62 249 4.0 10.0 0.00 0.00 0.00 62 1015.1
20260504184502 61 237 5.0 10.0 0.00 0.00 0.00 62 1015.2
20260504183602 61 239 5.0 10.0 0.00 0.00 0.00 63 1015.2
20260504182702 60 235 4.0 8.0 0.00 0.00 0.00 65 1015.2
20260504181823 59 243 5.0 9.0 0.00 0.00 0.00 68 1015.3
20260504180902 60 242 6.0 12.0 0.00 0.00 0.00 68 1015.2
20260504180002 61 241 4.0 10.0 0.00 0.00 0.00 66 1015.1
20260504175403 61 246 3.0 8.0 0.00 0.00 0.00 67 1015.0
20260504174523 60 240 2.0 6.0 0.00 0.00 0.00 67 1015.0
20260504173604 60 246 4.0 8.0 0.00 0.00 0.00 66 1015.0
20260504172723 60 242 3.0 8.0 0.00 0.00 0.00 68 1014.9
20260504171802 59 253 3.0 8.0 0.00 0.00 0.00 70 1014.8
20260504170923 59 241 3.0 7.0 0.00 0.00 0.00 73 1015.0
20260504150923 55 226 0.0 3.0 0.00 0.00 0.00 83 1014.5
20260504140923 53 149 0.0 1.0 0.00 0.00 0.00 89 1014.5
20260504081802 56 244 2.0 8.0 0.00 0.00 0.00 84 1013.2
20260504080902 56 227 0.0 2.0 0.00 0.00 0.00 83 1013.1
20260504050002 56 235 1.0 4.0 0.00 0.00 0.00 78 1013.0
20260504045402 56 238 1.0 4.0 0.00 0.00 0.00 78 1012.6
20260504044523 56 247 1.0 3.0 0.00 0.00 0.00 78 1012.7
20260504043623 56 246 1.0 3.0 0.00 0.00 0.00 78 1012.5
20260504042702 56 242 0.0 3.0 0.00 0.00 0.00 77 1012.3
20260504041803 56 249 0.0 3.0 0.00 0.00 0.00 77 1012.5
20260504040904 56 267 0.0 2.0 0.00 0.00 0.00 76 1012.3
20260504040004 56 255 0.0 3.0 0.00 0.00 0.00 77 1012.3
20260504035403 56 257 0.0 3.0 0.00 0.00 0.00 77 1012.4
20260504034502 57 239 1.0 3.0 0.00 0.00 0.00 77 1012.5
20260504033602 57 248 1.0 4.0 0.00 0.00 0.00 77 1012.5
20260504032702 57 250 1.0 4.0 0.00 0.00 0.00 76 1012.5
20260504031803 57 252 1.0 5.0 0.00 0.00 0.00 75 1012.2
20260504030923 57 248 2.0 7.0 0.00 0.00 0.00 74 1012.3
20260504030002 57 240 2.0 5.0 0.00 0.00 0.00 73 1012.0
20260504025402 57 242 1.0 3.0 0.00 0.00 0.00 73 1011.9
20260504024502 57 244 1.0 4.0 0.00 0.00 0.00 73 1011.8
20260504023602 57 245 1.0 4.0 0.00 0.00 0.00 72 1011.9
20260504022702 58 251 1.0 4.0 0.00 0.00 0.00 72 1011.9
20260504021823 58 245 3.0 7.0 0.00 0.00 0.00 72 1012.0
20260504020902 58 248 3.0 7.0 0.00 0.00 0.00 72 1011.7
20260504020023 58 238 3.0 7.0 0.00 0.00 0.00 71 1011.7
20260504015402 58 236 4.0 7.0 0.00 0.00 0.00 72 1011.5
20260504014502 59 246 4.0 8.0 0.00 0.00 0.00 71 1011.5
20260504013602 59 241 4.0 9.0 0.00 0.00 0.00 70 1011.6
20260504012723 59 245 5.0 10.0 0.00 0.00 0.00 70 1011.3
20260504011803 60 239 5.0 11.0 0.00 0.00 0.00 69 1011.1
20260504010902 61 238 5.0 9.0 0.00 0.00 0.00 68 1011.1
20260504010004 61 243 7.0 14.0 0.00 0.00 0.00 68 1010.7
20260504005402 62 238 7.0 12.0 0.00 0.00 0.00 67 1010.6
20260504004502 63 237 6.0 11.0 0.00 0.00 0.00 66 1010.6
20260504003603 64 240 5.0 11.0 0.00 0.00 0.00 64 1010.2
20260504002703 64 234 4.0 8.0 0.00 0.00 0.00 63 1010.2
20260504001802 64 237 3.0 8.0 0.00 0.00 0.00 65 1010.0
20260504000923 64 232 1.0 5.0 0.00 0.00 0.00 65 1010.0
20260504000023 64 237 4.0 6.0 0.00 0.00 0.00 65 1010.1
20260503235423 64 237 3.0 7.0 0.00 0.00 0.00 65 1010.2
20260503234502 64 234 1.0 4.0 0.00 0.00 0.00 67 1009.9
20260503233602 64 231 2.0 6.0 0.00 0.00 0.00 68 1010.0
20260503232702 64 230 2.0 6.0 0.00 0.00 0.00 68 1010.1
20260503231802 64 233 2.0 5.0 0.00 0.00 0.00 69 1010.2
20260503230902 64 228 2.0 5.0 0.00 0.00 0.00 68 1010.3
20260503230002 64 233 3.0 5.0 0.00 0.00 0.00 69 1010.4
20260503225402 64 236 4.0 7.0 0.00 0.00 0.00 69 1010.5
20260503224502 63 234 4.0 8.0 0.00 0.00 0.00 69 1010.5